Regional Weather Roundup
Issued by NWS Bismarck, ND

Home | Current Version | Previous Version | Text Only | Print | Product List | Glossary On
Versions: 1 2 3 4 5 6 7 8 9 10 11 12 13 14 15 16 17 18 19 20 21 22 23 24 25 26 27 28 29 30 31 32 33 34 35 36 37 38 39 40 41 42 43 44 45 46 47 48 49 50
000
ASUS43 KBIS 051901
RWRBIS

NWR BROADCAST TEXT
NATIONAL WEATHER SERVICE BISMARCK ND
100 PM CST THU MAR 05 2015

NOTE: "FAIR" INDICATES FEW OR NO CLOUDS BELOW 12,000 FEET WITH NO
SIGNIFICANT WEATHER AND/OR OBSTRUCTIONS TO VISIBILITY.


CITY           SKY/WX    TMP DP  RH WIND       PRES   REMARKS
WILLISTON      NOT AVBL
MINOT          SUNNY     20   7  57 S8        30.05S WCI  10
MINOT AFB      SUNNY     22  11  62 W12       30.05S WCI  11
BISMARCK       NOT AVBL
DICKINSON      SUNNY     39  10  30 NW16G23   30.01F
GARRISON         N/A     23  10  57 SW8       30.06F WCI  14
HETTINGER ARPT NOT AVBL
JAMESTOWN      SUNNY     22   9  57 S18       30.16F WCI   7
CARRINGTON     FAIR      23  10  58 MISG      30.14F
CROSBY         FAIR      25  10  54 W10       30.04S WCI  15
HAZEN          FAIR      32   7  34 W13       30.07F
LINTON         FAIR      27   5  39 S18       30.14F WCI  13
OAKES            N/A     16   5  62 S21G26    30.25F WCI  -2
WATFORD CITY   FAIR      28  10  47 W12       30.04S WCI  18
$$

CITY           SKY/WX    TMP DP  RH WIND       PRES   REMARKS
GRAND FORKS    NOT AVBL
GRAND FORKS AF SUNNY     21   3  45 SW16      30.20F WCI   7
DEVILS LAKE    SUNNY     18   5  57 SW12      30.13S WCI   5
FARGO          NOT AVBL
GWINNER        CLEAR     21   5  49 SW21      30.27F WCI   6
$$

CITY           SKY/WX    TMP DP  RH WIND       PRES   REMARKS
BUFFALO          N/A     42  12  29 W32G38    29.99F
GLASGOW        SUNNY     40  11  30 W10       30.08S
SIDNEY         SUNNY     37  10  32 W14       30.10S
WOLF POINT     SUNNY     42  13  30 W14       30.07F
GLENDIVE       SUNNY     39  12  33 W17G24    30.09R
MILES CITY     SUNNY     45  15  30 MISG      30.11S
BAKER          SUNNY     39  13  34 NW22G30   30.06R
$$

CITY           SKY/WX    TMP DP  RH WIND       PRES   REMARKS
GREAT FALLS    SUNNY     49   8  19 W23G32    30.10F
$$



USA.gov is the U.S. government's official web portal to all federal, state and local government web resources and services.